| time (UTC) | temp F | wind direction | speed MPH | gust MPH | rain 1hr in | rain 24hr in | rain mn in | humidity % | barometer mb |
| 20260901014506 | 60 | 210 | 3.0 | 5.0 | 0.00 | 0.08 | 0.00 | 87 | 1017.8 |
| 20260901014006 | 60 | 206 | 2.0 | 4.0 | 0.00 | 0.08 | 0.00 | 87 | 1017.9 |
| 20260901013518 | 60 | 204 | 2.0 | 5.0 | 0.00 | 0.08 | 0.00 | 87 | 1017.8 |
| 20260901013005 | 60 | 206 | 3.0 | 5.0 | 0.00 | 0.08 | 0.00 | 87 | 1017.8 |
| 20260901012504 | 61 | 207 | 3.0 | 5.0 | 0.00 | 0.08 | 0.00 | 87 | 1017.8 |
| 20260901012006 | 61 | 209 | 1.0 | 5.0 | 0.00 | 0.08 | 0.00 | 87 | 1017.7 |
| 20260901011505 | 61 | 209 | 2.0 | 5.0 | 0.00 | 0.08 | 0.00 | 87 | 1017.8 |
| 20260901011007 | 61 | 214 | 3.0 | 6.0 | 0.00 | 0.08 | 0.00 | 87 | 1017.7 |
| 20260901010908 | 61 | 224 | 3.0 | 6.0 | 0.00 | 0.08 | 0.00 | 87 | 1017.8 |
| 20260901010007 | 61 | 228 | 4.0 | 5.0 | 0.00 | 0.08 | 0.00 | 87 | 1017.7 |
| 20260901005505 | 61 | 235 | 3.0 | 6.0 | 0.00 | 0.08 | 0.00 | 87 | 1017.6 |
| 20260901005247 | 61 | 244 | 4.0 | 6.0 | 0.00 | 0.08 | 0.00 | 86 | 1017.6 |
| 20260901005133 | 61 | 234 | 3.0 | 6.0 | 0.00 | 0.08 | 0.00 | 86 | 1017.6 |
| 20260901004004 | 61 | 234 | 3.0 | 6.0 | 0.00 | 0.08 | 0.00 | 86 | 1017.6 |
| 20260901003504 | 61 | 241 | 3.0 | 7.0 | 0.00 | 0.15 | 0.00 | 86 | 1017.6 |
| 20260901003005 | 61 | 231 | 4.0 | 9.0 | 0.00 | 0.15 | 0.00 | 86 | 1017.5 |
| 20260901002504 | 61 | 220 | 5.0 | 9.0 | 0.00 | 0.15 | 0.00 | 86 | 1017.6 |
| 20260901002350 | 61 | 212 | 4.0 | 10.0 | 0.00 | 0.15 | 0.00 | 86 | 1017.6 |
| 20260901001506 | 62 | 241 | 5.0 | 10.0 | 0.00 | 0.15 | 0.00 | 86 | 1017.6 |
| 20260901001006 | 62 | 231 | 4.0 | 10.0 | 0.00 | 0.15 | 0.00 | 85 | 1017.5 |
| 20260901000506 | 62 | 233 | 5.0 | 11.0 | 0.00 | 0.15 | 0.00 | 85 | 1017.4 |
| 20260901000259 | 62 | 220 | 6.0 | 11.0 | 0.00 | 0.15 | 0.00 | 85 | 1017.4 |
| 20260901000144 | 62 | 212 | 4.0 | 11.0 | 0.00 | 0.15 | 0.00 | 85 | 1017.4 |
| 20260831235004 | 62 | 228 | 5.0 | 11.0 | 0.00 | 0.15 | 0.00 | 85 | 1017.5 |
| 20260831234505 | 62 | 220 | 7.0 | 11.0 | 0.00 | 0.15 | 0.00 | 85 | 1017.5 |
| 20260831234006 | 62 | 224 | 6.0 | 10.0 | 0.00 | 0.15 | 0.00 | 85 | 1017.5 |
| 20260831233504 | 62 | 227 | 4.0 | 9.0 | 0.00 | 0.15 | 0.00 | 85 | 1017.4 |
| 20260831233017 | 62 | 217 | 4.0 | 7.0 | 0.00 | 0.15 | 0.00 | 85 | 1017.4 |
| 20260831232504 | 62 | 227 | 4.0 | 7.0 | 0.00 | 0.15 | 0.00 | 85 | 1017.4 |
| 20260831232004 | 62 | 251 | 4.0 | 6.0 | 0.00 | 0.15 | 0.00 | 85 | 1017.5 |
| 20260831231505 | 62 | 240 | 4.0 | 7.0 | 0.00 | 0.15 | 0.00 | 84 | 1017.3 |
| 20260831231358 | 62 | 223 | 4.0 | 9.0 | 0.00 | 0.15 | 0.00 | 84 | 1017.4 |
| 20260831230502 | 62 | 244 | 5.0 | 10.0 | 0.00 | 0.15 | 0.00 | 84 | 1017.3 |
| 20260831230004 | 62 | 226 | 5.0 | 10.0 | 0.00 | 0.15 | 0.00 | 84 | 1017.3 |
| 20260831225502 | 62 | 248 | 4.0 | 9.0 | 0.00 | 0.15 | 0.00 | 84 | 1017.3 |
| 20260831225003 | 62 | 259 | 4.0 | 9.0 | 0.00 | 0.15 | 0.00 | 84 | 1017.4 |
| 20260831224503 | 62 | 252 | 6.0 | 9.0 | 0.00 | 0.15 | 0.00 | 84 | 1017.3 |
| 20260831224004 | 62 | 252 | 5.0 | 7.0 | 0.00 | 0.15 | 0.00 | 84 | 1017.3 |
| 20260831223503 | 62 | 237 | 5.0 | 10.0 | 0.00 | 0.15 | 0.00 | 83 | 1017.3 |
| 20260831223002 | 62 | 193 | 6.0 | 10.0 | 0.00 | 0.15 | 0.00 | 83 | 1017.3 |
| 20260831222853 | 62 | 220 | 5.0 | 10.0 | 0.00 | 0.15 | 0.00 | 83 | 1017.3 |
| 20260831222002 | 62 | 234 | 5.0 | 9.0 | 0.00 | 0.15 | 0.00 | 83 | 1017.2 |
| 20260831221501 | 62 | 230 | 5.0 | 10.0 | 0.00 | 0.15 | 0.00 | 83 | 1017.3 |
| 20260831221002 | 63 | 226 | 5.0 | 10.0 | 0.00 | 0.15 | 0.00 | 82 | 1017.2 |
| 20260831220501 | 63 | 237 | 4.0 | 9.0 | 0.00 | 0.15 | 0.00 | 82 | 1017.2 |
| 20260831220003 | 63 | 210 | 5.0 | 9.0 | 0.00 | 0.15 | 0.15 | 82 | 1017.2 |
| 20260831215501 | 63 | 227 | 5.0 | 9.0 | 0.00 | 0.15 | 0.15 | 81 | 1017.1 |
| 20260831215000 | 63 | 224 | 4.0 | 9.0 | 0.00 | 0.15 | 0.15 | 81 | 1017.1 |
| 20260831214848 | 63 | 251 | 5.0 | 9.0 | 0.00 | 0.15 | 0.15 | 81 | 1017.2 |
| 20260831214002 | 63 | 237 | 4.0 | 10.0 | 0.00 | 0.15 | 0.15 | 81 | 1017.1 |
| 20260831213505 | 63 | 255 | 6.0 | 10.0 | 0.00 | 0.15 | 0.15 | 81 | 1017.2 |
| 20260831213351 | 63 | 228 | 5.0 | 9.0 | 0.00 | 0.15 | 0.15 | 81 | 1017.1 |
| 20260831212503 | 63 | 227 | 4.0 | 9.0 | 0.00 | 0.15 | 0.15 | 80 | 1017.1 |
| 20260831212005 | 63 | 227 | 4.0 | 10.0 | 0.00 | 0.15 | 0.15 | 80 | 1017.1 |
| 20260831211844 | 63 | 228 | 5.0 | 10.0 | 0.00 | 0.15 | 0.15 | 80 | 1017.0 |
| 20260831211001 | 63 | 228 | 4.0 | 10.0 | 0.00 | 0.15 | 0.15 | 80 | 1017.0 |
| 20260831210503 | 63 | 237 | 5.0 | 9.0 | 0.00 | 0.15 | 0.15 | 80 | 1017.0 |
| 20260831210000 | 63 | 213 | 5.0 | 9.0 | 0.00 | 0.15 | 0.15 | 79 | 1017.0 |
| 20260831205845 | 63 | 219 | 5.0 | 9.0 | 0.00 | 0.15 | 0.15 | 79 | 1017.0 |
| 20260831205000 | 63 | 234 | 5.0 | 7.0 | 0.00 | 0.15 | 0.15 | 78 | 1016.9 |
| 20260831204500 | 63 | 238 | 5.0 | 7.0 | 0.00 | 0.15 | 0.15 | 78 | 1016.7 |
| 20260831203959 | 63 | 235 | 4.0 | 9.0 | 0.00 | 0.15 | 0.15 | 78 | 1016.7 |
| 20260831203500 | 63 | 235 | 5.0 | 9.0 | 0.00 | 0.15 | 0.15 | 78 | 1016.7 |
| 20260831202959 | 63 | 241 | 4.0 | 7.0 | 0.00 | 0.15 | 0.15 | 78 | 1016.7 |
| 20260831202839 | 63 | 254 | 3.0 | 10.0 | 0.00 | 0.15 | 0.15 | 78 | 1016.7 |
| 20260831201958 | 63 | 231 | 5.0 | 10.0 | 0.00 | 0.15 | 0.15 | 78 | 1016.6 |
| 20260831201457 | 63 | 238 | 4.0 | 7.0 | 0.00 | 0.15 | 0.15 | 78 | 1016.6 |
| 20260831200957 | 62 | 238 | 3.0 | 7.0 | 0.00 | 0.15 | 0.15 | 78 | 1016.6 |
| 20260831200458 | 62 | 235 | 4.0 | 7.0 | 0.00 | 0.15 | 0.15 | 78 | 1016.5 |
| 20260831195958 | 62 | 238 | 3.0 | 7.0 | 0.00 | 0.15 | 0.15 | 78 | 1016.5 |
| 20260831195459 | 62 | 228 | 5.0 | 7.0 | 0.00 | 0.15 | 0.15 | 78 | 1016.3 |
| 20260831194958 | 62 | 237 | 3.0 | 5.0 | 0.00 | 0.15 | 0.15 | 77 | 1016.3 |
| 20260831194457 | 62 | 269 | 0.0 | 0.0 | 0.00 | 0.15 | 0.15 | 76 | 1016.2 |
| 20260831194338 | 62 | 271 | 0.0 | 0.0 | 0.00 | 0.15 | 0.15 | 76 | 1016.1 |
| 20260831193457 | 62 | 271 | 0.0 | 0.0 | 0.00 | 0.15 | 0.15 | 76 | 1016.1 |
| 20260831193000 | 62 | 271 | 0.0 | 0.0 | 0.00 | 0.15 | 0.15 | 75 | 1016.1 |
| 20260831192457 | 62 | 271 | 0.0 | 0.0 | 0.00 | 0.15 | 0.15 | 75 | 1016.0 |
| 20260831191957 | 63 | 271 | 0.0 | 0.0 | 0.00 | 0.15 | 0.15 | 75 | 1016.0 |
| 20260831191838 | 63 | 272 | 0.0 | 0.0 | 0.00 | 0.15 | 0.15 | 74 | 1015.9 |
| 20260831190958 | 64 | 272 | 0.0 | 0.0 | 0.00 | 0.15 | 0.15 | 74 | 1015.8 |
| 20260831190457 | 64 | 272 | 0.0 | 3.0 | 0.00 | 0.15 | 0.15 | 73 | 1015.8 |
| 20260831185958 | 64 | 272 | 0.0 | 3.0 | 0.00 | 0.15 | 0.15 | 71 | 1015.8 |
| 20260831185456 | 65 | 275 | 2.0 | 5.0 | 0.00 | 0.15 | 0.15 | 71 | 1015.7 |
| 20260831184957 | 65 | 276 | 2.0 | 5.0 | 0.00 | 0.15 | 0.15 | 70 | 1015.6 |
| 20260831184456 | 65 | 272 | 3.0 | 5.0 | 0.00 | 0.16 | 0.15 | 70 | 1015.6 |
| 20260831183956 | 65 | 281 | 2.0 | 6.0 | 0.00 | 0.16 | 0.15 | 69 | 1015.4 |
| 20260831183457 | 65 | 275 | 4.0 | 6.0 | 0.00 | 0.16 | 0.15 | 69 | 1015.4 |
| 20260831182957 | 66 | 282 | 2.0 | 7.0 | 0.00 | 0.16 | 0.15 | 68 | 1015.4 |
| 20260831182456 | 66 | 278 | 5.0 | 7.0 | 0.00 | 0.16 | 0.15 | 68 | 1015.3 |
| 20260831181955 | 66 | 272 | 4.0 | 7.0 | 0.00 | 0.16 | 0.15 | 67 | 1015.2 |
| 20260831181456 | 67 | 312 | 4.0 | 7.0 | 0.00 | 0.16 | 0.15 | 67 | 1015.1 |
| 20260831180956 | 67 | 296 | 4.0 | 6.0 | 0.00 | 0.16 | 0.15 | 67 | 1015.0 |
| 20260831180456 | 67 | 282 | 2.0 | 11.0 | 0.00 | 0.16 | 0.15 | 66 | 1014.8 |
| 20260831175954 | 67 | 276 | 4.0 | 11.0 | 0.00 | 0.16 | 0.15 | 65 | 1014.8 |
| 20260831175457 | 67 | 323 | 3.0 | 7.0 | 0.00 | 0.16 | 0.15 | 65 | 1014.8 |
| 20260831174954 | 67 | 296 | 4.0 | 12.0 | 0.00 | 0.16 | 0.15 | 64 | 1014.7 |
| 20260831174454 | 68 | 299 | 6.0 | 12.0 | 0.00 | 0.16 | 0.15 | 64 | 1014.7 |
| 20260831173954 | 68 | 276 | 5.0 | 12.0 | 0.00 | 0.16 | 0.15 | 63 | 1014.6 |
| 20260831173837 | 68 | 276 | 6.0 | 16.0 | 0.00 | 0.16 | 0.15 | 62 | 1014.5 |
| 20260831173340 | 68 | 255 | 8.0 | 16.0 | 0.00 | 0.16 | 0.15 | 61 | 1014.5 |
| 20260831172456 | 68 | 281 | 8.0 | 16.0 | 0.00 | 0.16 | 0.15 | 62 | 1014.4 |
| 20260831171955 | 69 | 278 | 7.0 | 16.0 | 0.00 | 0.16 | 0.15 | 61 | 1014.4 |
| 20260831171742 | 69 | 250 | 7.0 | 16.0 | 0.00 | 0.16 | 0.15 | 61 | 1014.3 |
| 20260831171626 | 69 | 288 | 5.0 | 16.0 | 0.00 | 0.16 | 0.15 | 62 | 1014.2 |
| 20260831170835 | 69 | 298 | 8.0 | 16.0 | 0.00 | 0.16 | 0.15 | 60 | 1014.1 |
| 20260831165955 | 69 | 281 | 9.0 | 19.0 | 0.00 | 0.16 | 0.15 | 61 | 1014.0 |
| 20260831165454 | 69 | 305 | 8.0 | 19.0 | 0.00 | 0.16 | 0.15 | 61 | 1014.0 |
| 20260831164953 | 69 | 282 | 8.0 | 18.0 | 0.00 | 0.16 | 0.15 | 61 | 1014.0 |
| 20260831164453 | 69 | 307 | 9.0 | 20.0 | 0.00 | 0.16 | 0.15 | 60 | 1014.0 |
| 20260831164347 | 69 | 348 | 11.0 | 20.0 | 0.00 | 0.16 | 0.15 | 60 | 1013.9 |
| 20260831163843 | 69 | 259 | 5.0 | 17.0 | 0.00 | 0.16 | 0.15 | 61 | 1013.9 |
| 20260831162952 | 69 | 298 | 9.0 | 18.0 | 0.00 | 0.16 | 0.15 | 60 | 1013.8 |
| 20260831162452 | 69 | 258 | 8.0 | 18.0 | 0.00 | 0.16 | 0.15 | 59 | 1013.7 |
| 20260831161952 | 70 | 305 | 11.0 | 20.0 | 0.00 | 0.16 | 0.15 | 59 | 1013.8 |
| 20260831161453 | 70 | 289 | 10.0 | 20.0 | 0.00 | 0.16 | 0.15 | 59 | 1013.7 |
| 20260831160951 | 70 | 336 | 8.0 | 17.0 | 0.00 | 0.16 | 0.15 | 59 | 1013.6 |
| 20260831160451 | 70 | 274 | 9.0 | 24.0 | 0.00 | 0.16 | 0.15 | 59 | 1013.7 |
| 20260831155951 | 70 | 313 | 12.0 | 24.0 | 0.00 | 0.16 | 0.15 | 59 | 1013.6 |
| 20260831155454 | 71 | 299 | 11.0 | 20.0 | 0.00 | 0.16 | 0.15 | 60 | 1013.6 |
| 20260831154951 | 71 | 259 | 10.0 | 18.0 | 0.00 | 0.16 | 0.15 | 60 | 1013.4 |
| 20260831154839 | 71 | 274 | 10.0 | 18.0 | 0.00 | 0.16 | 0.15 | 60 | 1013.4 |
| 20260831153952 | 71 | 354 | 12.0 | 18.0 | 0.00 | 0.16 | 0.15 | 60 | 1013.4 |
| 20260831153452 | 71 | 354 | 9.0 | 18.0 | 0.00 | 0.16 | 0.15 | 60 | 1013.4 |
| 20260831152950 | 71 | 300 | 8.0 | 21.0 | 0.00 | 0.16 | 0.15 | 60 | 1013.3 |
| 20260831152451 | 70 | 243 | 14.0 | 22.0 | 0.00 | 0.16 | 0.15 | 60 | 1013.2 |
| 20260831151951 | 70 | 274 | 14.0 | 22.0 | 0.00 | 0.16 | 0.15 | 61 | 1013.1 |
| 20260831151452 | 70 | 268 | 10.0 | 22.0 | 0.00 | 0.16 | 0.15 | 62 | 1013.1 |
| 20260831151005 | 70 | 341 | 11.0 | 22.0 | 0.00 | 0.16 | 0.15 | 61 | 1013.0 |
| 20260831150452 | 71 | 306 | 5.0 | 17.0 | 0.00 | 0.16 | 0.15 | 62 | 1012.9 |
| 20260831145950 | 70 | 281 | 10.0 | 20.0 | 0.00 | 0.16 | 0.15 | 60 | 1013.0 |
| 20260831145451 | 70 | 313 | 10.0 | 20.0 | 0.00 | 0.16 | 0.15 | 64 | 1012.9 |
| 20260831144951 | 70 | 300 | 10.0 | 17.0 | 0.00 | 0.16 | 0.15 | 62 | 1012.9 |
| 20260831144451 | 70 | 331 | 7.0 | 20.0 | 0.00 | 0.16 | 0.15 | 60 | 1012.8 |
| 20260831143950 | 71 | 288 | 6.0 | 20.0 | 0.00 | 0.16 | 0.15 | 61 | 1012.6 |
| 20260831143449 | 70 | 309 | 10.0 | 16.0 | 0.00 | 0.16 | 0.15 | 63 | 1012.6 |
| 20260831142950 | 69 | 337 | 9.0 | 20.0 | 0.00 | 0.16 | 0.15 | 62 | 1012.5 |
| 20260831142451 | 70 | 289 | 11.0 | 20.0 | 0.00 | 0.16 | 0.15 | 61 | 1012.4 |
| 20260831142337 | 71 | 321 | 8.0 | 19.0 | 0.00 | 0.16 | 0.15 | 60 | 1012.3 |
| 20260831141448 | 71 | 274 | 6.0 | 19.0 | 0.00 | 0.16 | 0.15 | 60 | 1012.2 |
| 20260831141338 | 71 | 321 | 7.0 | 19.0 | 0.00 | 0.16 | 0.15 | 62 | 1012.1 |
| 20260831140449 | 71 | 348 | 11.0 | 19.0 | 0.00 | 0.16 | 0.15 | 60 | 1012.1 |
| 20260831135948 | 71 | 298 | 9.0 | 20.0 | 0.00 | 0.16 | 0.15 | 63 | 1011.9 |
| 20260831135448 | 70 | 275 | 11.0 | 20.0 | 0.00 | 0.16 | 0.15 | 63 | 1011.9 |
| 20260831134950 | 70 | 247 | 9.0 | 15.0 | 0.00 | 0.16 | 0.15 | 66 | 1011.8 |
| 20260831134450 | 69 | 269 | 8.0 | 16.0 | 0.00 | 0.16 | 0.15 | 65 | 1011.8 |
| 20260831133949 | 69 | 336 | 6.0 | 16.0 | 0.00 | 0.16 | 0.15 | 67 | 1011.9 |
| 20260831133450 | 69 | 302 | 5.0 | 18.0 | 0.00 | 0.16 | 0.15 | 71 | 1011.7 |
| 20260831133346 | 70 | 221 | 11.0 | 18.0 | 0.00 | 0.16 | 0.15 | 69 | 1011.9 |
| 20260831132448 | 70 | 272 | 9.0 | 17.0 | 0.00 | 0.16 | 0.15 | 68 | 1011.7 |
| 20260831131948 | 70 | 262 | 8.0 | 17.0 | 0.00 | 0.16 | 0.15 | 68 | 1011.5 |
| 20260831131449 | 70 | 282 | 9.0 | 16.0 | 0.00 | 0.16 | 0.15 | 67 | 1011.5 |
| 20260831131336 | 68 | 265 | 9.0 | 15.0 | 0.00 | 0.16 | 0.15 | 70 | 1011.6 |
| 20260831130449 | 68 | 348 | 7.0 | 22.0 | 0.00 | 0.16 | 0.15 | 71 | 1011.5 |
| 20260831130336 | 68 | 285 | 14.0 | 22.0 | 0.00 | 0.16 | 0.15 | 69 | 1011.4 |
| 20260831125448 | 69 | 252 | 9.0 | 17.0 | 0.00 | 0.16 | 0.15 | 69 | 1011.3 |
| 20260831124946 | 69 | 283 | 11.0 | 17.0 | 0.00 | 0.16 | 0.15 | 70 | 1011.3 |
| 20260831124446 | 68 | 269 | 7.0 | 17.0 | 0.00 | 0.16 | 0.15 | 74 | 1011.3 |
| 20260831123948 | 67 | 244 | 9.0 | 17.0 | 0.00 | 0.16 | 0.15 | 73 | 1011.4 |
| 20260831123446 | 65 | 240 | 10.0 | 15.0 | 0.00 | 0.16 | 0.15 | 78 | 1011.3 |
| 20260831122946 | 64 | 230 | 5.0 | 17.0 | 0.00 | 0.16 | 0.15 | 78 | 1011.3 |
| 20260831122837 | 65 | 282 | 8.0 | 21.0 | 0.00 | 0.16 | 0.15 | 78 | 1011.2 |
| 20260831121946 | 65 | 252 | 13.0 | 21.0 | 0.00 | 0.16 | 0.15 | 76 | 1011.1 |
| 20260831121836 | 65 | 252 | 7.0 | 17.0 | 0.00 | 0.16 | 0.15 | 75 | 1010.9 |
| 20260831120947 | 65 | 264 | 9.0 | 18.0 | 0.00 | 0.16 | 0.15 | 75 | 1010.8 |
| 20260831120445 | 65 | 281 | 11.0 | 18.0 | 0.00 | 0.16 | 0.15 | 75 | 1010.8 |
| 20260831115946 | 65 | 262 | 7.0 | 18.0 | 0.00 | 0.16 | 0.15 | 76 | 1010.8 |
| 20260831115444 | 65 | 268 | 11.0 | 19.0 | 0.00 | 0.16 | 0.15 | 76 | 1010.6 |
| 20260831114945 | 65 | 230 | 12.0 | 19.0 | 0.00 | 0.16 | 0.15 | 76 | 1010.6 |
| 20260831114831 | 66 | 310 | 5.0 | 15.0 | 0.00 | 0.16 | 0.15 | 77 | 1010.6 |
| 20260831113945 | 66 | 278 | 7.0 | 23.0 | 0.00 | 0.16 | 0.15 | 78 | 1010.7 |
| 20260831113446 | 66 | 237 | 12.0 | 24.0 | 0.00 | 0.16 | 0.15 | 78 | 1010.7 |
| 20260831112946 | 65 | 206 | 6.0 | 24.0 | 0.00 | 0.16 | 0.15 | 79 | 1010.6 |
| 20260831112855 | 65 | 266 | 10.0 | 21.0 | 0.00 | 0.16 | 0.15 | 78 | 1010.5 |
| 20260831111944 | 66 | 213 | 13.0 | 21.0 | 0.00 | 0.16 | 0.15 | 79 | 1010.4 |
| 20260831111444 | 65 | 241 | 10.0 | 16.0 | 0.00 | 0.16 | 0.15 | 82 | 1010.3 |
| 20260831110946 | 64 | 224 | 4.0 | 11.0 | 0.00 | 0.17 | 0.15 | 85 | 1010.4 |
| 20260831110445 | 64 | 223 | 6.0 | 14.0 | 0.00 | 0.17 | 0.15 | 84 | 1010.4 |
| 20260831105944 | 64 | 238 | 7.0 | 14.0 | 0.00 | 0.17 | 0.15 | 84 | 1010.5 |
| 20260831105446 | 64 | 240 | 6.0 | 12.0 | 0.00 | 0.17 | 0.15 | 84 | 1010.4 |
| 20260831104944 | 64 | 298 | 6.0 | 16.0 | 0.00 | 0.17 | 0.15 | 84 | 1010.4 |
| 20260831104446 | 64 | 228 | 11.0 | 17.0 | 0.00 | 0.17 | 0.15 | 83 | 1010.6 |
| 20260831103945 | 64 | 259 | 10.0 | 18.0 | 0.01 | 0.17 | 0.15 | 82 | 1010.4 |
| 20260831103444 | 65 | 224 | 12.0 | 18.0 | 0.02 | 0.17 | 0.15 | 82 | 1010.3 |
| 20260831102943 | 65 | 231 | 8.0 | 13.0 | 0.07 | 0.17 | 0.15 | 84 | 1010.4 |
| 20260831102444 | 64 | 274 | 7.0 | 12.0 | 0.07 | 0.17 | 0.15 | 86 | 1010.3 |
| 20260831102331 | 63 | 255 | 6.0 | 16.0 | 0.07 | 0.17 | 0.15 | 85 | 1010.3 |
| 20260831101444 | 63 | 261 | 8.0 | 16.0 | 0.07 | 0.17 | 0.15 | 87 | 1010.4 |
| 20260831100944 | 63 | 231 | 7.0 | 14.0 | 0.07 | 0.17 | 0.15 | 88 | 1010.3 |
| 20260831100444 | 63 | 219 | 9.0 | 14.0 | 0.07 | 0.17 | 0.15 | 87 | 1010.4 |
| 20260831095943 | 62 | 217 | 6.0 | 13.0 | 0.07 | 0.09 | 0.15 | 87 | 1010.2 |
| 20260831095444 | 62 | 233 | 7.0 | 15.0 | 0.07 | 0.09 | 0.15 | 87 | 1010.2 |
| 20260831094941 | 62 | 238 | 8.0 | 15.0 | 0.07 | 0.09 | 0.15 | 86 | 1010.2 |
| 20260831094824 | 62 | 228 | 7.0 | 13.0 | 0.06 | 0.09 | 0.14 | 85 | 1010.1 |
| 20260831093944 | 63 | 281 | 6.0 | 15.0 | 0.06 | 0.09 | 0.13 | 84 | 1010.2 |
| 20260831093443 | 63 | 264 | 9.0 | 20.0 | 0.05 | 0.09 | 0.11 | 83 | 1010.2 |
| 20260831092942 | 64 | 243 | 13.0 | 21.0 | 0.00 | 0.09 | 0.08 | 80 | 1009.9 |
| 20260831092442 | 65 | 233 | 11.0 | 21.0 | 0.00 | 0.09 | 0.08 | 78 | 1009.9 |
| 20260831091940 | 66 | 243 | 10.0 | 18.0 | 0.00 | 0.09 | 0.08 | 78 | 1010.0 |
| 20260831091443 | 66 | 233 | 10.0 | 22.0 | 0.00 | 0.09 | 0.08 | 77 | 1009.9 |
| 20260831090941 | 66 | 234 | 13.0 | 27.0 | 0.00 | 0.09 | 0.08 | 76 | 1009.9 |
| 20260831090444 | 65 | 248 | 12.0 | 27.0 | 0.00 | 0.09 | 0.08 | 77 | 1009.8 |
| 20260831085941 | 65 | 257 | 12.0 | 28.0 | 0.00 | 0.09 | 0.08 | 76 | 1009.8 |
| 20260831085441 | 65 | 290 | 13.0 | 29.0 | 0.00 | 0.09 | 0.08 | 75 | 1009.6 |
| 20260831084942 | 66 | 197 | 17.0 | 29.0 | 0.00 | 0.09 | 0.08 | 74 | 1009.7 |
| 20260831084440 | 66 | 223 | 14.0 | 30.0 | 0.00 | 0.09 | 0.08 | 75 | 1009.6 |
| 20260831083940 | 66 | 234 | 18.0 | 30.0 | 0.00 | 0.09 | 0.08 | 74 | 1009.6 |
| 20260831083442 | 66 | 241 | 13.0 | 24.0 | 0.00 | 0.09 | 0.08 | 74 | 1009.5 |
| 20260831082942 | 66 | 231 | 15.0 | 24.0 | 0.00 | 0.09 | 0.08 | 75 | 1009.4 |
| 20260831082443 | 65 | 196 | 14.0 | 22.0 | 0.00 | 0.09 | 0.08 | 77 | 1009.2 |
| 20260831082321 | 65 | 221 | 10.0 | 22.0 | 0.00 | 0.09 | 0.08 | 77 | 1009.3 |
| 20260831081440 | 65 | 216 | 13.0 | 24.0 | 0.00 | 0.09 | 0.08 | 78 | 1009.3 |
| 20260831080940 | 64 | 162 | 13.0 | 29.0 | 0.00 | 0.09 | 0.08 | 78 | 1009.3 |
| 20260831080826 | 64 | 227 | 12.0 | 29.0 | 0.00 | 0.09 | 0.08 | 78 | 1009.3 |
| 20260831075939 | 64 | 241 | 11.0 | 26.0 | 0.00 | 0.09 | 0.08 | 77 | 1009.4 |
| 20260831075823 | 65 | 261 | 15.0 | 26.0 | 0.00 | 0.09 | 0.08 | 78 | 1009.3 |
| 20260831074939 | 65 | 275 | 9.0 | 21.0 | 0.00 | 0.09 | 0.08 | 78 | 1009.3 |
| 20260831074439 | 65 | 226 | 10.0 | 22.0 | 0.00 | 0.09 | 0.08 | 77 | 1009.3 |
| 20260831073939 | 65 | 221 | 13.0 | 22.0 | 0.00 | 0.09 | 0.08 | 77 | 1009.3 |
| 20260831073438 | 65 | 251 | 10.0 | 20.0 | 0.00 | 0.09 | 0.08 | 78 | 1009.3 |
| 20260831072940 | 65 | 258 | 12.0 | 20.0 | 0.00 | 0.09 | 0.08 | 78 | 1009.2 |
| 20260831072438 | 64 | 235 | 11.0 | 18.0 | 0.00 | 0.09 | 0.08 | 78 | 1009.3 |
| 20260831071940 | 64 | 190 | 10.0 | 20.0 | 0.00 | 0.09 | 0.08 | 79 | 1009.2 |
| 20260831071438 | 64 | 228 | 10.0 | 24.0 | 0.00 | 0.09 | 0.08 | 78 | 1009.2 |
| 20260831070940 | 64 | 226 | 15.0 | 24.0 | 0.00 | 0.09 | 0.08 | 78 | 1009.2 |
| 20260831070827 | 64 | 217 | 11.0 | 22.0 | 0.00 | 0.09 | 0.08 | 79 | 1009.4 |
| 20260831070326 | 64 | 240 | 13.0 | 20.0 | 0.00 | 0.09 | 0.08 | 79 | 1009.4 |
| 20260831065438 | 63 | 240 | 10.0 | 20.0 | 0.00 | 0.09 | 0.08 | 79 | 1009.2 |
| 20260831064938 | 63 | 186 | 12.0 | 20.0 | 0.00 | 0.09 | 0.08 | 79 | 1009.3 |
| 20260831064438 | 63 | 206 | 13.0 | 18.0 | 0.00 | 0.09 | 0.08 | 79 | 1009.3 |
| 20260831063938 | 63 | 226 | 8.0 | 17.0 | 0.00 | 0.09 | 0.08 | 79 | 1009.2 |
| 20260831063436 | 64 | 212 | 12.0 | 17.0 | 0.00 | 0.09 | 0.08 | 79 | 1009.3 |
| 20260831062938 | 64 | 182 | 7.0 | 20.0 | 0.00 | 0.09 | 0.08 | 78 | 1009.3 |
| 20260831062437 | 64 | 234 | 9.0 | 20.0 | 0.00 | 0.09 | 0.08 | 78 | 1009.4 |
| 20260831061938 | 64 | 216 | 10.0 | 18.0 | 0.00 | 0.09 | 0.08 | 79 | 1009.3 |
| 20260831061438 | 64 | 178 | 10.0 | 18.0 | 0.00 | 0.09 | 0.08 | 79 | 1009.3 |
| 20260831060936 | 64 | 219 | 9.0 | 21.0 | 0.00 | 0.09 | 0.08 | 80 | 1009.4 |
| 20260831060436 | 63 | 199 | 17.0 | 21.0 | 0.00 | 0.09 | 0.08 | 80 | 1009.3 |
| 20260831055936 | 63 | 199 | 11.0 | 17.0 | 0.00 | 0.09 | 0.08 | 80 | 1009.0 |
| 20260831055434 | 63 | 224 | 12.0 | 17.0 | 0.00 | 0.09 | 0.08 | 81 | 1009.2 |
| 20260831055324 | 62 | 230 | 11.0 | 18.0 | 0.00 | 0.09 | 0.08 | 81 | 1009.0 |
| 20260831054435 | 62 | 226 | 11.0 | 18.0 | 0.00 | 0.09 | 0.08 | 82 | 1009.0 |
| 20260831053936 | 62 | 213 | 11.0 | 16.0 | 0.00 | 0.09 | 0.08 | 81 | 1009.2 |
| 20260831053435 | 62 | 199 | 10.0 | 16.0 | 0.00 | 0.09 | 0.08 | 82 | 1009.2 |
| 20260831052935 | 62 | 234 | 9.0 | 17.0 | 0.00 | 0.09 | 0.08 | 82 | 1009.1 |
| 20260831052434 | 62 | 202 | 9.0 | 17.0 | 0.00 | 0.09 | 0.08 | 83 | 1009.1 |
| 20260831051934 | 62 | 182 | 11.0 | 15.0 | 0.00 | 0.09 | 0.08 | 83 | 1009.1 |
| 20260831051433 | 62 | 204 | 8.0 | 15.0 | 0.00 | 0.09 | 0.08 | 83 | 1009.0 |
| 20260831050933 | 62 | 209 | 6.0 | 19.0 | 0.00 | 0.09 | 0.08 | 83 | 1009.1 |
| 20260831050437 | 62 | 182 | 12.0 | 21.0 | 0.00 | 0.09 | 0.08 | 83 | 1009.1 |
| 20260831045937 | 62 | 214 | 10.0 | 21.0 | 0.00 | 0.09 | 0.08 | 84 | 1009.2 |
| 20260831045438 | 62 | 223 | 9.0 | 14.0 | 0.00 | 0.09 | 0.08 | 84 | 1009.2 |
| 20260831045313 | 61 | 207 | 7.0 | 14.0 | 0.00 | 0.09 | 0.08 | 84 | 1009.0 |
| 20260831044811 | 62 | 219 | 6.0 | 15.0 | 0.00 | 0.09 | 0.08 | 84 | 1009.1 |
| 20260831043938 | 61 | 196 | 9.0 | 15.0 | 0.00 | 0.09 | 0.08 | 84 | 1009.0 |
| 20260831043435 | 61 | 190 | 6.0 | 13.0 | 0.00 | 0.09 | 0.08 | 84 | 1009.1 |
| 20260831042933 | 61 | 219 | 6.0 | 11.0 | 0.00 | 0.09 | 0.08 | 85 | 1009.1 |
| 20260831042436 | 61 | 224 | 6.0 | 10.0 | 0.00 | 0.09 | 0.08 | 85 | 1009.0 |
| 20260831041934 | 61 | 217 | 6.0 | 11.0 | 0.00 | 0.09 | 0.08 | 85 | 1009.1 |
| 20260831041805 | 61 | 210 | 6.0 | 11.0 | 0.00 | 0.09 | 0.08 | 85 | 1009.0 |
| 20260831040936 | 61 | 233 | 6.0 | 12.0 | 0.00 | 0.09 | 0.08 | 85 | 1009.0 |
| 20260831040804 | 61 | 216 | 5.0 | 13.0 | 0.00 | 0.09 | 0.08 | 85 | 1009.2 |
| 20260831035933 | 61 | 192 | 8.0 | 13.0 | 0.00 | 0.09 | 0.08 | 85 | 1009.2 |
| 20260831035433 | 61 | 200 | 8.0 | 13.0 | 0.00 | 0.09 | 0.08 | 85 | 1009.2 |
| 20260831034934 | 61 | 210 | 5.0 | 16.0 | 0.00 | 0.09 | 0.08 | 85 | 1009.3 |
| 20260831034433 | 61 | 210 | 7.0 | 16.0 | 0.00 | 0.09 | 0.08 | 85 | 1009.3 |
| 20260831033931 | 62 | 210 | 8.0 | 13.0 | 0.00 | 0.09 | 0.08 | 85 | 1009.3 |
| 20260831033432 | 62 | 190 | 9.0 | 13.0 | 0.00 | 0.09 | 0.08 | 85 | 1009.4 |
| 20260831032933 | 62 | 228 | 9.0 | 13.0 | 0.00 | 0.09 | 0.08 | 85 | 1009.5 |
| 20260831032707 | 62 | 230 | 5.0 | 12.0 | 0.00 | 0.09 | 0.08 | 86 | 1009.4 |
| 20260831032558 | 62 | 183 | 7.0 | 13.0 | 0.00 | 0.09 | 0.08 | 86 | 1009.3 |
| 20260831031432 | 61 | 254 | 7.0 | 13.0 | 0.00 | 0.09 | 0.08 | 86 | 1009.4 |
| 20260831030944 | 61 | 241 | 5.0 | 15.0 | 0.01 | 0.09 | 0.08 | 86 | 1009.3 |
| 20260831030433 | 61 | 213 | 7.0 | 15.0 | 0.01 | 0.09 | 0.08 | 86 | 1009.3 |
| 20260831025932 | 61 | 221 | 8.0 | 15.0 | 0.01 | 0.09 | 0.08 | 86 | 1009.4 |
| 20260831025432 | 61 | 223 | 8.0 | 13.0 | 0.01 | 0.09 | 0.08 | 87 | 1009.4 |
| 20260831025309 | 61 | 231 | 6.0 | 11.0 | 0.01 | 0.09 | 0.08 | 87 | 1009.4 |
| 20260831024434 | 61 | 213 | 5.0 | 11.0 | 0.01 | 0.09 | 0.08 | 87 | 1009.4 |
| 20260831023933 | 61 | 274 | 6.0 | 11.0 | 0.01 | 0.09 | 0.08 | 87 | 1009.4 |
| 20260831023432 | 61 | 219 | 5.0 | 10.0 | 0.01 | 0.09 | 0.08 | 87 | 1009.4 |
| 20260831022931 | 61 | 206 | 5.0 | 10.0 | 0.01 | 0.09 | 0.08 | 88 | 1009.3 |
| 20260831022431 | 61 | 240 | 5.0 | 12.0 | 0.01 | 0.09 | 0.08 | 88 | 1009.2 |
| 20260831021931 | 61 | 212 | 7.0 | 12.0 | 0.01 | 0.09 | 0.08 | 88 | 1009.2 |
| 20260831021431 | 61 | 199 | 5.0 | 12.0 | 0.01 | 0.09 | 0.08 | 88 | 1009.2 |
| 20260831021307 | 61 | 206 | 6.0 | 10.0 | 0.00 | 0.09 | 0.07 | 88 | 1009.3 |
| 20260831020431 | 61 | 234 | 6.0 | 9.0 | 0.00 | 0.09 | 0.07 | 88 | 1009.2 |
| 20260831015932 | 61 | 221 | 4.0 | 9.0 | 0.00 | 0.09 | 0.07 | 88 | 1009.2 |
| 20260831015431 | 61 | 259 | 5.0 | 9.0 | 0.00 | 0.09 | 0.07 | 88 | 1009.3 |
| 20260831014934 | 61 | 216 | 4.0 | 7.0 | 0.00 | 0.09 | 0.07 | 88 | 1009.1 |